Flag for U.S.A. Weather past 2 weeks in Myrtle Beach, South Carolina, U.S.A.

Now
75 °F

Passing clouds.


Feels Like: 77 °F
Forecast: 69 / 81 °F
Wind: 10 mph from Southeast

Location: Myrtle Beach Air Force Base

Current Time: May 28, 2015 at 12:31:15 AM

Latest Report: May 27, 2015 at 11:35 PM


Visibility: 10 mi

Pressure: 30.25 "Hg

Humidity: 74%

Dew point: 66 °F

Location of Myrtle BeachLocation

Historic Weather in Myrtle Beach — Graph

°F

Myrtle Beach temperature yesterday

Maximum temperature yesterday: 82 °F (at 9:45 AM)
Minimum temperature yesterday: 75 °F (at 5:45 AM)
Average temperature yesterday: 80 °F

Past Weeks' High & Low Weather Summary

 TemperatureHumidityPressure
High90 °F (May 19, 12:45 PM)94% (May 14, 2:35 AM)30.42 "Hg (May 14, 2:35 AM)
Low61 °F (May 16, 4:55 AM)40% (May 13, 2:50 PM)29.76 "Hg (May 21, 4:45 PM)
Average73 °F70%30.20 "Hg
* Reported May 12 10:55 PM — May 27 10:55 PM, Myrtle Beach, Weather by CustomWeather, © 2015

Note: Actual official high and low records may vary slightly from our data, if they occured in-between our weather recording intervals... More about our weather records

Advertising

Myrtle Beach weather history for previous 24 hours

 ConditionsComfort  
Time TempWeatherWind HumidityBarometerVisibility
10:55 PM
Wed, May 27
75 °FPartly cloudy.12 mph74%30.25 "Hg10 mi
9:45 PM77 °FPartly cloudy.8 mph69%30.24 "Hg10 mi
8:45 PM77 °FPassing clouds.7 mph65%30.24 "Hg10 mi
6:47 PM79 °FScattered clouds.14 mph65%30.22 "Hg10 mi
5:45 PM81 °FSunny.12 mph58%30.24 "Hg10 mi
4:45 PM82 °FSunny.15 mph58%30.23 "Hg10 mi
3:45 PM82 °FPassing clouds.16 mph58%30.23 "Hg10 mi
2:48 PM82 °FPassing clouds.16 mph62%30.25 "Hg10 mi
1:45 PM82 °FScattered clouds.14 mph58%30.28 "Hg10 mi
12:45 PM82 °FScattered clouds.14 mph62%30.28 "Hg10 mi
11:45 AM82 °FScattered clouds.14 mph62%30.28 "Hg10 mi
10:45 AM82 °FScattered showers. Scattered clouds.10 mph62%30.30 "Hg10 mi
9:45 AM82 °FBroken clouds.9 mph70%30.30 "Hg10 mi
8:45 AM79 °FPartly sunny.12 mph70%30.30 "Hg10 mi
7:45 AM77 °FScattered clouds.12 mph79%30.27 "Hg10 mi
6:50 AM75 °FPassing clouds.12 mph83%30.25 "Hg10 mi
5:45 AM75 °FPassing clouds.9 mph83%30.22 "Hg10 mi
12:15 AM77 °FOvercast.6 mph74%30.29 "Hg10 mi
Weather by CustomWeather, © 2015

See weather overviewHow to use our weather pages